FW2545 Weather Reports


Display with metric or nautical units.
time (UTC)temp
F
wind
direction
speed
MPH
gust
MPH
rain 1hr
in
rain 24hr
in
rain mn
in
humidity
%
barometer
mb
20260906081543 52 246 2.0 5.0 0.00 0.00 0.00 86 1018.5
20260906074541 51 202 0.0 3.0 0.00 0.00 0.00 84 1018.7
20260906073115 52 247 0.0 2.0 0.00 0.00 0.00 83 1018.6
20260906064543 51 218 1.0 3.0 0.00 0.00 0.00 83 1018.9
20260906063119 51 202 0.0 2.0 0.00 0.00 0.00 83 1018.9
20260906060043 50 183 0.0 3.0 0.00 0.00 0.00 83 1018.9
20260906054542 50 234 1.0 3.0 0.00 0.00 0.00 82 1019.0
20260906053037 50 237 1.0 4.0 0.00 0.00 0.00 82 1019.1
20260906051542 50 208 1.0 3.0 0.00 0.00 0.00 82 1019.2
20260906050041 51 157 0.0 2.0 0.00 0.00 0.00 82 1019.3
20260906044541 51 238 0.0 3.0 0.00 0.00 0.00 82 1019.3
20260906043039 52 247 0.0 1.0 0.00 0.00 0.00 81 1019.3
20260906041541 53 252 0.0 2.0 0.00 0.00 0.00 80 1019.3
20260906040042 53 284 2.0 4.0 0.00 0.00 0.00 79 1019.1
20260906034541 53 157 0.0 0.0 0.00 0.00 0.00 78 1019.1
20260906031544 56 157 0.0 2.0 0.00 0.00 0.00 71 1018.8
20260906030043 58 157 0.0 2.0 0.00 0.00 0.00 65 1018.7
20260906024542 60 282 2.0 6.0 0.00 0.00 0.00 63 1018.7
20260906023039 61 306 3.0 6.0 0.00 0.00 0.00 62 1018.5
20260906020041 64 305 4.0 7.0 0.00 0.00 0.00 59 1018.4
20260906013040 65 310 5.0 11.0 0.00 0.00 0.00 55 1018.5
20260906011543 66 289 5.0 12.0 0.00 0.00 0.00 54 1018.5
20260906010043 68 272 8.0 16.0 0.00 0.00 0.00 52 1018.7
20260906003044 71 291 6.0 16.0 0.00 0.00 0.00 46 1018.4
20260906001539 71 345 4.0 10.0 0.00 0.00 0.00 47 1018.2
20260906000040 72 359 4.0 13.0 0.00 0.00 0.00 46 1018.1
20260905234542 74 12 5.0 11.0 0.00 0.00 0.00 46 1018.1
20260905233119 74 356 3.0 11.0 0.00 0.00 0.00 46 1018.2
20260905231617 74 5 3.0 9.0 0.00 0.00 0.00 45 1018.3
20260905230044 74 354 4.0 8.0 0.00 0.00 0.00 46 1018.4
20260905224618 73 24 4.0 11.0 0.00 0.01 0.00 48 1018.4
20260905220051 74 27 4.0 9.0 0.00 0.02 0.00 52 1018.9
20260905220044 73 15 5.0 11.0 0.00 0.02 0.00 54 1019.1
20260905213041 69 47 5.0 11.0 0.00 0.02 0.00 58 1019.2
20260905211544 68 354 2.0 8.0 0.00 0.02 0.00 59 1019.5
20260905210041 67 49 2.0 8.0 0.00 0.02 0.00 60 1019.6
20260905204543 68 66 3.0 12.0 0.00 0.02 0.00 60 1019.4
20260905201539 67 71 2.0 9.0 0.00 0.02 0.00 64 1019.7
20260905200045 66 27 2.0 9.0 0.00 0.02 0.00 64 1019.9
20260905194540 66 60 5.0 10.0 0.00 0.02 0.00 67 1019.9
20260905191541 64 17 3.0 8.0 0.00 0.02 0.00 71 1020.3
20260905190044 60 328 2.0 5.0 0.00 0.02 0.00 77 1020.6
20260905183043 60 305 1.0 4.0 0.00 0.02 0.00 78 1020.7
20260905181543 58 321 1.0 4.0 0.00 0.02 0.00 81 1020.9
20260905180051 58 318 2.0 5.0 0.00 0.02 0.00 83 1020.9
20260905180044 58 327 2.0 5.0 0.00 0.02 0.00 84 1020.9
20260905171542 57 288 1.0 4.0 0.00 0.02 0.00 88 1020.8
20260905170042 55 114 0.0 3.0 0.00 0.02 0.00 93 1020.7
20260905163042 53 202 0.0 0.0 0.00 0.02 0.00 94 1020.7
20260905161541 52 202 0.0 0.0 0.00 0.02 0.00 94 1020.7
20260905153043 49 202 1.0 3.0 0.00 0.02 0.00 95 1020.5
20260905151543 48 202 0.0 2.0 0.00 0.02 0.00 95 1020.5
20260905150041 47 202 0.0 2.0 0.00 0.02 0.00 95 1020.5
20260905144543 45 202 2.0 4.0 0.00 0.02 0.00 95 1020.3
20260905141541 44 203 1.0 3.0 0.00 0.02 0.00 94 1020.0
20260905134543 44 207 1.0 4.0 0.00 0.02 0.00 94 1019.9
20260905133042 44 202 2.0 4.0 0.00 0.02 0.00 94 1019.7
20260905131618 45 207 1.0 4.0 0.00 0.02 0.00 94 1019.7
20260905130044 45 247 0.0 2.0 0.00 0.02 0.00 94 1019.6
20260905124539 45 247 0.0 0.0 0.00 0.02 0.00 94 1019.5
20260905123043 46 204 0.0 2.0 0.00 0.02 0.00 94 1019.5
20260905121542 46 217 2.0 4.0 0.00 0.02 0.00 94 1019.6
20260905120044 47 269 0.0 3.0 0.00 0.02 0.00 94 1019.5
20260905114543 47 214 1.0 4.0 0.00 0.02 0.00 94 1019.6
20260905113042 47 247 0.0 2.0 0.00 0.02 0.00 94 1019.5
20260905111541 48 247 0.0 2.0 0.00 0.02 0.00 94 1019.4
20260905110041 48 202 0.0 0.0 0.00 0.02 0.00 93 1019.5
20260905103045 49 223 0.0 3.0 0.00 0.02 0.00 93 1019.5
20260905100043 49 227 0.0 1.0 0.00 0.02 0.00 93 1019.6
20260905094700 49 210 0.0 2.0 0.00 0.02 0.00 93 1019.6
20260905093042 49 177 0.0 3.0 0.00 0.02 0.00 93 1019.4
20260905090042 49 198 1.0 3.0 0.00 0.02 0.00 93 1019.4
20260905084701 49 241 1.0 3.0 0.00 0.02 0.00 93 1019.3
20260905083041 48 247 0.0 0.0 0.00 0.02 0.00 93 1019.2